English version Home page |
Updated on April 30, 2013 |
|
軌道要素The following orbital elements are taken from MPEC 2011-X24: Epoch 2011 Aug. 27.0 TT = JDT 2455800.5 MPC M 3.03863 (2000.0) P Q n 0.06986381 Peri. 341.37882 +0.08239267 -0.97837957 a 5.8384990 Node 103.55193 +0.93735806 +0.01142996 e 0.5899861 Incl. 11.25229 +0.33848386 +0.20650125 P 14.1 H 13.9 G 0.15 U 0 From 77 observations at 4 oppositions, 1998-2011, mean residual 0".45.
|
光度変化H = 13.6 G = 0.15
|
軌道要素はMPCのEphemerides and Orbital Elementsに掲載されたものです。
|